K25 EFOU-EFRO

Flight info

Callsign K25
Flight time 1h 24m
Altitude 4000
Route HAILUOTO TC TASKI TANGONSAARI SELKASAARI NISKANPRA
Aircraft G115/L-SDGRY/S

Departure

Time 2026-05-04 18:50
Airport Oulu Airport (EFOU)

Arrival

Time 2026-05-04 20:14
Airport Rovaniemi Airport (EFRO)
Time Latitude Longitude Altitude Speed Heading
2026-05-04 18:46 64.93230 25.33708 53 ft 0 kts 103°
2026-05-04 18:48 64.93227 25.33741 53 ft 7 kts 97°
2026-05-04 18:48 64.93274 25.33784 53 ft 10 kts
2026-05-04 18:49 64.93339 25.33870 53 ft 11 kts 31°
2026-05-04 18:49 64.93379 25.34007 54 ft 12 kts 99°
2026-05-04 18:49 64.93362 25.34093 54 ft 0 kts 120°
2026-05-04 18:49 64.93268 25.34454 51 ft 56 kts 120°
2026-05-04 18:50 64.93009 25.35469 173 ft 79 kts 111°
2026-05-04 18:50 64.92717 25.36683 408 ft 89 kts 115°
2026-05-04 18:50 64.92320 25.37679 684 ft 88 kts 183°
2026-05-04 18:50 64.91960 25.36527 679 ft 107 kts 278°
2026-05-04 18:51 64.92282 25.34888 800 ft 112 kts 296°
2026-05-04 18:51 64.92606 25.33181 935 ft 115 kts 293°
2026-05-04 18:51 64.92906 25.31453 1142 ft 110 kts 293°
2026-05-04 18:51 64.93202 25.29824 1359 ft 109 kts 290°
2026-05-04 18:52 64.93318 25.28034 1464 ft 115 kts 269°
2026-05-04 18:52 64.93341 25.26169 1639 ft 112 kts 271°
2026-05-04 18:52 64.93513 25.24544 1697 ft 115 kts 275°
2026-05-04 18:52 64.93556 25.22724 1900 ft 110 kts 266°
2026-05-04 18:53 64.93545 25.20910 2006 ft 114 kts 267°
2026-05-04 18:53 64.93558 25.19054 2153 ft 112 kts 265°
2026-05-04 18:53 64.93491 25.17202 2239 ft 116 kts 261°
2026-05-04 18:53 64.93420 25.15314 2320 ft 118 kts 262°
2026-05-04 18:54 64.93336 25.13347 2358 ft 120 kts 259°
2026-05-04 18:54 64.93189 25.11446 2478 ft 117 kts 259°
2026-05-04 18:54 64.93116 25.09512 2522 ft 120 kts 264°
2026-05-04 18:54 64.93106 25.07544 2580 ft 120 kts 266°
2026-05-04 18:55 64.93096 25.05586 2657 ft 119 kts 264°
2026-05-04 18:55 64.93037 25.01692 2795 ft 120 kts 268°
2026-05-04 18:55 64.93077 24.99726 2856 ft 120 kts 267°
2026-05-04 18:56 64.93086 24.97790 2919 ft 120 kts 265°
2026-05-04 18:56 64.93066 24.95821 2965 ft 122 kts 270°
2026-05-04 18:56 64.93235 24.93830 2977 ft 126 kts 282°
2026-05-04 18:56 64.93525 24.91880 3012 ft 126 kts 284°
2026-05-04 18:57 64.93874 24.90011 3101 ft 125 kts 292°
2026-05-04 18:57 64.94303 24.88212 3134 ft 127 kts 294°
2026-05-04 18:57 64.94752 24.86428 3190 ft 126 kts 295°
2026-05-04 18:57 64.95184 24.84617 3235 ft 127 kts 295°
2026-05-04 18:58 64.95824 24.83097 3185 ft 140 kts 327°
2026-05-04 18:58 64.96826 24.82871 3063 ft 152 kts 12°
2026-05-04 18:58 64.97714 24.84232 2953 ft 155 kts 48°
2026-05-04 18:58 64.98321 24.86324 2877 ft 154 kts 63°
2026-05-04 18:59 64.98673 24.88617 2952 ft 143 kts 83°
2026-05-04 18:59 64.98652 24.90944 2926 ft 143 kts 101°
2026-05-04 18:59 64.98577 24.93281 2951 ft 142 kts 95°
2026-05-04 18:59 64.98547 24.95577 2951 ft 142 kts 98°
2026-05-04 19:00 64.98472 24.97934 2928 ft 142 kts 101°
2026-05-04 19:00 64.98338 25.00235 2929 ft 142 kts 101°
2026-05-04 19:00 64.98249 25.02558 2919 ft 144 kts 99°
2026-05-04 19:00 64.98096 25.04972 2674 ft 153 kts 103°
2026-05-04 19:01 64.97939 25.07474 2418 ft 155 kts 102°
2026-05-04 19:01 64.97735 25.09889 2325 ft 149 kts 105°
2026-05-04 19:01 64.97517 25.12302 2103 ft 150 kts 106°
2026-05-04 19:01 64.97238 25.14670 1875 ft 149 kts 111°
2026-05-04 19:02 64.96923 25.16973 1607 ft 143 kts 111°
2026-05-04 19:02 64.96596 25.19202 1184 ft 145 kts 114°
2026-05-04 19:02 64.96259 25.21302 898 ft 124 kts 114°
2026-05-04 19:02 64.95954 25.23087 776 ft 109 kts 114°
2026-05-04 19:03 64.95678 25.24642 690 ft 97 kts 115°
2026-05-04 19:03 64.95403 25.26028 619 ft 90 kts 118°
2026-05-04 19:03 64.95087 25.27295 523 ft 86 kts 123°
2026-05-04 19:03 64.94780 25.28483 463 ft 87 kts 119°
2026-05-04 19:04 64.94473 25.29713 394 ft 88 kts 118°
2026-05-04 19:04 64.94167 25.30933 328 ft 86 kts 119°
2026-05-04 19:04 64.93861 25.32143 235 ft 88 kts 120°
2026-05-04 19:04 64.93550 25.33369 103 ft 84 kts 120°
2026-05-04 19:05 64.93281 25.34415 51 ft 63 kts 121°
2026-05-04 19:05 64.93150 25.34960 143 ft 60 kts 108°
2026-05-04 19:05 64.93031 25.35477 195 ft 67 kts 113°
2026-05-04 19:05 64.92861 25.36171 303 ft 79 kts 116°
2026-05-04 19:06 64.92567 25.37381 545 ft 90 kts 117°
2026-05-04 19:06 64.92432 25.38691 803 ft 90 kts 42°
2026-05-04 19:06 64.93045 25.38303 710 ft 116 kts 308°
2026-05-04 19:06 64.93495 25.36660 783 ft 121 kts 301°
2026-05-04 19:07 64.93970 25.35007 777 ft 117 kts 307°
2026-05-04 19:07 64.94420 25.33585 634 ft 102 kts 306°
2026-05-04 19:07 64.94744 25.32199 534 ft 96 kts 264°
2026-05-04 19:07 64.94190 25.31769 379 ft 116 kts 154°
2026-05-04 19:08 64.93609 25.33112 122 ft 116 kts 120°
2026-05-04 19:08 64.93237 25.34571 71 ft 97 kts 118°
2026-05-04 19:08 64.92874 25.35974 294 ft 107 kts 120°
2026-05-04 19:08 64.92441 25.37503 472 ft 118 kts 124°
2026-05-04 19:09 64.92584 25.38857 680 ft 105 kts 352°
2026-05-04 19:09 64.93154 25.37588 575 ft 125 kts 306°
2026-05-04 19:09 64.93661 25.35881 562 ft 130 kts 303°
2026-05-04 19:09 64.94160 25.34060 491 ft 131 kts 299°
2026-05-04 19:10 64.94503 25.32223 562 ft 106 kts 270°
2026-05-04 19:10 64.94181 25.31599 530 ft 112 kts 168°
2026-05-04 19:10 64.93486 25.33607 61 ft 117 kts 118°
2026-05-04 19:10 64.93110 25.35073 119 ft 102 kts 119°
2026-05-04 19:11 64.92726 25.36520 402 ft 104 kts 123°
2026-05-04 19:11 64.92276 25.37920 638 ft 115 kts 129°
2026-05-04 19:11 64.92081 25.39547 846 ft 114 kts 46°
2026-05-04 19:11 64.92683 25.39194 648 ft 107 kts 308°
2026-05-04 19:12 64.93100 25.37720 512 ft 105 kts 302°
2026-05-04 19:12 64.93799 25.34874 365 ft 93 kts 296°
2026-05-04 19:12 64.94060 25.33526 332 ft 84 kts 292°
2026-05-04 19:13 64.94081 25.32311 374 ft 91 kts 212°
2026-05-04 19:13 64.93562 25.33322 105 ft 111 kts 119°
2026-05-04 19:13 64.93209 25.34698 51 ft 88 kts 124°
2026-05-04 19:13 64.92895 25.35977 295 ft 92 kts 110°
2026-05-04 19:14 64.92752 25.37405 574 ft 98 kts 96°
2026-05-04 19:14 64.93011 25.38599 778 ft 94 kts 350°
2026-05-04 19:14 64.93410 25.37284 755 ft 105 kts 295°
2026-05-04 19:14 64.93733 25.35822 660 ft 96 kts 300°
2026-05-04 19:15 64.94069 25.34373 479 ft 102 kts 300°
2026-05-04 19:15 64.94350 25.33045 444 ft 75 kts 284°
2026-05-04 19:15 64.94027 25.32248 316 ft 90 kts 173°
2026-05-04 19:15 64.93583 25.33235 89 ft 89 kts 118°
2026-05-04 19:16 64.93301 25.34348 73 ft 69 kts 117°
2026-05-04 19:16 64.93081 25.35416 318 ft 72 kts 110°
2026-05-04 19:16 64.92840 25.36538 512 ft 91 kts 115°
2026-05-04 19:16 64.92537 25.37952 679 ft 108 kts 87°
2026-05-04 19:17 64.93053 25.38822 707 ft 113 kts 332°
2026-05-04 19:17 64.93499 25.37219 618 ft 120 kts 297°
2026-05-04 19:17 64.93790 25.35654 568 ft 87 kts 295°
2026-05-04 19:17 64.93986 25.34411 456 ft 80 kts 288°
2026-05-04 19:18 64.94055 25.33198 334 ft 79 kts 237°
2026-05-04 19:18 64.93571 25.33297 97 ft 83 kts 125°
2026-05-04 19:18 64.93296 25.34362 74 ft 69 kts 117°
2026-05-04 19:18 64.93071 25.35285 237 ft 66 kts 113°
2026-05-04 19:19 64.92799 25.36369 287 ft 95 kts 121°
2026-05-04 19:19 64.92442 25.37887 475 ft 105 kts 96°
2026-05-04 19:19 64.92766 25.39289 617 ft 108 kts 11°
2026-05-04 19:19 64.93560 25.39360 638 ft 119 kts
2026-05-04 19:20 64.94401 25.39782 682 ft 125 kts
2026-05-04 19:20 64.95249 25.39413 732 ft 125 kts 345°
2026-05-04 19:20 64.96131 25.39491 764 ft 130 kts
2026-05-04 19:20 64.97031 25.39339 775 ft 130 kts 342°
2026-05-04 19:21 64.97475 25.37733 778 ft 132 kts 266°
2026-05-04 19:21 64.97208 25.35650 773 ft 132 kts 259°
2026-05-04 19:21 64.97540 25.33886 772 ft 133 kts 339°
2026-05-04 19:21 64.98467 25.34059 798 ft 134 kts 10°
2026-05-04 19:22 64.99355 25.34388 969 ft 127 kts
2026-05-04 19:22 65.00233 25.34734 1132 ft 127 kts
2026-05-04 19:22 65.01131 25.34721 1112 ft 132 kts 326°
2026-05-04 19:22 65.01919 25.33949 1242 ft 126 kts 355°
2026-05-04 19:23 65.02779 25.33896 1470 ft 123 kts 356°
2026-05-04 19:23 65.03624 25.33884 1701 ft 119 kts 355°
2026-05-04 19:23 65.04514 25.33850 1688 ft 133 kts 349°
2026-05-04 19:23 65.05450 25.33538 1684 ft 138 kts 351°
2026-05-04 19:24 65.06418 25.33354 1680 ft 140 kts 353°
2026-05-04 19:24 65.07388 25.33181 1677 ft 139 kts 344°
2026-05-04 19:24 65.08174 25.32049 1679 ft 134 kts 319°
2026-05-04 19:24 65.09018 25.31272 1706 ft 127 kts 351°
2026-05-04 19:25 65.09900 25.30913 1772 ft 131 kts 345°
2026-05-04 19:25 65.10794 25.30366 1783 ft 135 kts 347°
2026-05-04 19:25 65.11725 25.29965 1792 ft 137 kts 348°
2026-05-04 19:25 65.12671 25.29577 1795 ft 139 kts 348°
2026-05-04 19:26 65.13620 25.29182 1787 ft 138 kts 348°
2026-05-04 19:26 65.14569 25.28776 1789 ft 138 kts 347°
2026-05-04 19:26 65.15516 25.28365 1788 ft 139 kts 347°
2026-05-04 19:26 65.16469 25.27957 1784 ft 139 kts 347°
2026-05-04 19:27 65.17418 25.27550 1785 ft 139 kts 347°
2026-05-04 19:27 65.18368 25.27135 1787 ft 138 kts 347°
2026-05-04 19:27 65.19318 25.26718 1789 ft 139 kts 347°
2026-05-04 19:27 65.20269 25.26303 1789 ft 139 kts 347°
2026-05-04 19:28 65.21221 25.25892 1786 ft 139 kts 347°
2026-05-04 19:28 65.22161 25.25487 1785 ft 139 kts 347°
2026-05-04 19:28 65.23113 25.25076 1785 ft 139 kts 347°
2026-05-04 19:28 65.24065 25.24666 1786 ft 139 kts 347°
2026-05-04 19:29 65.25018 25.24250 1789 ft 139 kts 347°
2026-05-04 19:29 65.25970 25.23837 1789 ft 139 kts 347°
2026-05-04 19:29 65.26923 25.23431 1788 ft 139 kts 347°
2026-05-04 19:29 65.27876 25.23018 1786 ft 139 kts 347°
2026-05-04 19:30 65.28829 25.22612 1786 ft 139 kts 347°
2026-05-04 19:30 65.29783 25.22200 1790 ft 139 kts 347°
2026-05-04 19:30 65.30736 25.21798 1785 ft 139 kts 347°
2026-05-04 19:30 65.31688 25.21390 1785 ft 139 kts 347°
2026-05-04 19:31 65.32628 25.20898 1788 ft 138 kts 342°
2026-05-04 19:31 65.33548 25.20234 1789 ft 138 kts 340°
2026-05-04 19:31 65.34467 25.19547 1788 ft 138 kts 342°
2026-05-04 19:31 65.35416 25.19436 1790 ft 138 kts 352°
2026-05-04 19:32 65.36107 25.18103 1819 ft 127 kts 308°
2026-05-04 19:32 65.36757 25.16592 1801 ft 132 kts 311°
2026-05-04 19:32 65.37386 25.14965 1794 ft 134 kts 309°
2026-05-04 19:32 65.38014 25.13300 1788 ft 135 kts 309°
2026-05-04 19:33 65.38653 25.11653 1785 ft 135 kts 310°
2026-05-04 19:33 65.39297 25.10026 1784 ft 134 kts 311°
2026-05-04 19:33 65.39945 25.08400 1787 ft 135 kts 311°
2026-05-04 19:33 65.40597 25.06775 1787 ft 135 kts 311°
2026-05-04 19:34 65.41249 25.05145 1784 ft 135 kts 311°
2026-05-04 19:34 65.41901 25.03517 1783 ft 135 kts 311°
2026-05-04 19:34 65.42550 25.01893 1783 ft 135 kts 311°
2026-05-04 19:34 65.43199 25.00263 1784 ft 135 kts 311°
2026-05-04 19:35 65.43838 24.98653 1785 ft 135 kts 311°
2026-05-04 19:35 65.44490 24.97023 1785 ft 135 kts 311°
2026-05-04 19:35 65.45143 24.95393 1784 ft 135 kts 311°
2026-05-04 19:35 65.45796 24.93759 1784 ft 135 kts 311°
2026-05-04 19:36 65.46446 24.92130 1783 ft 135 kts 311°
2026-05-04 19:36 65.47095 24.90500 1784 ft 135 kts 311°
2026-05-04 19:36 65.47742 24.88870 1790 ft 135 kts 311°
2026-05-04 19:36 65.48388 24.87235 1793 ft 135 kts 311°
2026-05-04 19:37 65.49035 24.85599 1795 ft 135 kts 311°
2026-05-04 19:37 65.49685 24.83962 1795 ft 135 kts 311°
2026-05-04 19:37 65.50337 24.82325 1795 ft 135 kts 311°
2026-05-04 19:37 65.50979 24.80711 1791 ft 135 kts 311°
2026-05-04 19:38 65.51629 24.79076 1794 ft 135 kts 311°
2026-05-04 19:38 65.52278 24.77436 1793 ft 135 kts 311°
2026-05-04 19:38 65.52925 24.75795 1792 ft 136 kts 311°
2026-05-04 19:38 65.53578 24.74127 1794 ft 137 kts 311°
2026-05-04 19:39 65.54235 24.72450 1797 ft 138 kts 311°
2026-05-04 19:39 65.54893 24.70771 1797 ft 138 kts 311°
2026-05-04 19:39 65.55551 24.69083 1795 ft 138 kts 311°
2026-05-04 19:39 65.56208 24.67394 1795 ft 138 kts 311°
2026-05-04 19:40 65.56866 24.65707 1796 ft 138 kts 311°
2026-05-04 19:40 65.57513 24.64041 1796 ft 138 kts 311°
2026-05-04 19:40 65.58171 24.62352 1798 ft 138 kts 311°
2026-05-04 19:40 65.58831 24.60666 1798 ft 138 kts 311°
2026-05-04 19:41 65.59489 24.58980 1796 ft 138 kts 311°
2026-05-04 19:41 65.60148 24.57290 1801 ft 138 kts 311°
2026-05-04 19:41 65.60809 24.55596 1799 ft 138 kts 311°
2026-05-04 19:41 65.61471 24.53898 1801 ft 138 kts 311°
2026-05-04 19:42 65.62131 24.52207 1801 ft 138 kts 311°
2026-05-04 19:42 65.62791 24.50517 1801 ft 138 kts 311°
2026-05-04 19:42 65.63450 24.48821 1799 ft 138 kts 311°
2026-05-04 19:42 65.64189 24.47367 1802 ft 139 kts 341°
2026-05-04 19:43 65.65153 24.47497 1819 ft 140 kts 12°
2026-05-04 19:43 65.66109 24.48027 1807 ft 142 kts 12°
2026-05-04 19:43 65.67064 24.48538 1802 ft 142 kts 12°
2026-05-04 19:43 65.68028 24.49061 1804 ft 142 kts 12°
2026-05-04 19:44 65.68994 24.49588 1806 ft 142 kts 12°
2026-05-04 19:44 65.69959 24.50112 1806 ft 142 kts 12°
2026-05-04 19:44 65.70922 24.50638 1804 ft 142 kts 12°
2026-05-04 19:44 65.71885 24.51166 1804 ft 142 kts 12°
2026-05-04 19:45 65.72849 24.51693 1808 ft 142 kts 12°
2026-05-04 19:45 65.73815 24.52228 1806 ft 142 kts 12°
2026-05-04 19:45 65.74778 24.52755 1805 ft 142 kts 12°
2026-05-04 19:45 65.75744 24.53285 1806 ft 142 kts 12°
2026-05-04 19:46 65.76710 24.53820 1806 ft 142 kts 12°
2026-05-04 19:46 65.77676 24.54355 1806 ft 142 kts 12°
2026-05-04 19:46 65.78629 24.54887 1806 ft 142 kts 12°
2026-05-04 19:46 65.79597 24.55425 1806 ft 142 kts 12°
2026-05-04 19:47 65.80563 24.55965 1807 ft 142 kts 12°
2026-05-04 19:47 65.81531 24.56504 1808 ft 143 kts 12°
2026-05-04 19:47 65.82500 24.57045 1814 ft 143 kts 12°
2026-05-04 19:47 65.83481 24.57590 1806 ft 145 kts 15°
2026-05-04 19:48 65.84425 24.58450 1736 ft 149 kts 22°
2026-05-04 19:48 65.85380 24.59427 1683 ft 147 kts 26°
2026-05-04 19:48 65.86355 24.60068 1739 ft 143 kts 14°
2026-05-04 19:48 65.87308 24.60909 1585 ft 153 kts 27°
2026-05-04 19:49 65.88212 24.62262 1351 ft 157 kts 37°
2026-05-04 19:49 65.88949 24.64113 1232 ft 149 kts 62°
2026-05-04 19:49 65.89404 24.66413 959 ft 152 kts 65°
2026-05-04 19:49 65.89762 24.68714 1011 ft 140 kts 68°
2026-05-04 19:50 65.90378 24.70531 965 ft 138 kts 26°
2026-05-04 19:50 65.91311 24.70696 902 ft 137 kts 346°
2026-05-04 19:50 65.92265 24.70285 703 ft 143 kts 13°
2026-05-04 19:50 65.93218 24.70642 768 ft 133 kts
2026-05-04 19:51 65.94141 24.70884 797 ft 134 kts
2026-05-04 19:51 65.95065 24.70967 874 ft 132 kts
2026-05-04 19:51 65.95986 24.71132 938 ft 134 kts
2026-05-04 19:51 65.96919 24.71336 919 ft 137 kts
2026-05-04 19:52 65.97875 24.71490 900 ft 140 kts
2026-05-04 19:52 65.98855 24.71736 784 ft 144 kts
2026-05-04 19:52 65.99842 24.71841 804 ft 137 kts
2026-05-04 19:52 66.00787 24.72029 803 ft 137 kts
2026-05-04 19:53 66.01666 24.72883 798 ft 137 kts 37°
2026-05-04 19:53 66.02395 24.74414 738 ft 139 kts 44°
2026-05-04 19:53 66.03129 24.75881 753 ft 137 kts 38°
2026-05-04 19:53 66.03907 24.77252 718 ft 138 kts 30°
2026-05-04 19:54 66.04470 24.78008 646 ft 140 kts 31°
2026-05-04 19:54 66.05389 24.78815 572 ft 142 kts 10°
2026-05-04 19:54 66.06359 24.79145 537 ft 140 kts
2026-05-04 19:54 66.07370 24.79411 275 ft 150 kts
2026-05-04 19:55 66.08720 24.79767 203 ft 136 kts 14°
2026-05-04 19:55 66.09275 24.80450 288 ft 131 kts 39°
2026-05-04 19:55 66.09970 24.81823 337 ft 129 kts 31°
2026-05-04 19:55 66.10622 24.83292 394 ft 129 kts 65°
2026-05-04 19:56 66.10942 24.85376 391 ft 133 kts 79°
2026-05-04 19:56 66.11273 24.87455 437 ft 129 kts 59°
2026-05-04 19:56 66.11716 24.89347 599 ft 122 kts 64°
2026-05-04 19:56 66.12001 24.91353 622 ft 129 kts 82°
2026-05-04 19:57 66.12068 24.93591 543 ft 136 kts 82°
2026-05-04 19:57 66.12396 24.95744 548 ft 135 kts 58°
2026-05-04 19:57 66.12873 24.97692 551 ft 135 kts 59°
2026-05-04 19:57 66.13322 24.99727 594 ft 130 kts 59°
2026-05-04 19:58 66.13735 25.01740 618 ft 132 kts 69°
2026-05-04 19:58 66.13877 25.03993 571 ft 136 kts 87°
2026-05-04 19:58 66.13925 25.06302 612 ft 134 kts 85°
2026-05-04 19:58 66.14045 25.08568 653 ft 133 kts 82°
2026-05-04 19:59 66.14192 25.10814 700 ft 131 kts 73°
2026-05-04 19:59 66.14675 25.12676 781 ft 130 kts 47°
2026-05-04 19:59 66.15309 25.14211 873 ft 128 kts 45°
2026-05-04 19:59 66.15901 25.15905 835 ft 133 kts 62°
2026-05-04 20:00 66.16134 25.18121 791 ft 135 kts 81°
2026-05-04 20:00 66.16250 25.20411 805 ft 132 kts 80°
2026-05-04 20:00 66.16448 25.22614 824 ft 132 kts 72°
2026-05-04 20:00 66.16859 25.24640 826 ft 133 kts 52°
2026-05-04 20:01 66.17502 25.26265 848 ft 131 kts 41°
2026-05-04 20:01 66.18222 25.27687 849 ft 131 kts 36°
2026-05-04 20:01 66.18955 25.29002 851 ft 133 kts 38°
2026-05-04 20:01 66.19636 25.30495 916 ft 129 kts 45°
2026-05-04 20:02 66.20240 25.32156 951 ft 128 kts 46°
2026-05-04 20:02 66.20940 25.33478 1065 ft 125 kts 26°
2026-05-04 20:02 66.21779 25.33970 1218 ft 125 kts
2026-05-04 20:02 66.22615 25.34363 1331 ft 125 kts 24°
2026-05-04 20:03 66.23461 25.34938 1420 ft 127 kts 11°
2026-05-04 20:03 66.24345 25.35289 1531 ft 127 kts 10°
2026-05-04 20:03 66.25185 25.35746 1704 ft 125 kts 16°
2026-05-04 20:03 66.26046 25.36135 1815 ft 127 kts
2026-05-04 20:04 66.26904 25.36440 2049 ft 121 kts
2026-05-04 20:04 66.27742 25.36743 2167 ft 125 kts 13°
2026-05-04 20:04 66.28613 25.37222 2236 ft 129 kts
2026-05-04 20:04 66.29487 25.37486 2413 ft 128 kts
2026-05-04 20:05 66.30368 25.37916 2443 ft 134 kts 19°
2026-05-04 20:05 66.31284 25.38497 2464 ft 137 kts 10°
2026-05-04 20:05 66.32222 25.38845 2538 ft 136 kts 10°
2026-05-04 20:05 66.33167 25.39225 2557 ft 139 kts
2026-05-04 20:06 66.34121 25.39516 2610 ft 139 kts
2026-05-04 20:06 66.35019 25.40211 2688 ft 135 kts 38°
2026-05-04 20:06 66.35699 25.41772 2839 ft 129 kts 46°
2026-05-04 20:06 66.36309 25.43342 2954 ft 131 kts 46°
2026-05-04 20:07 66.36964 25.44968 3000 ft 134 kts 48°
2026-05-04 20:07 66.37620 25.46646 3050 ft 136 kts 46°
2026-05-04 20:07 66.38270 25.48347 3090 ft 137 kts 45°
2026-05-04 20:07 66.38996 25.49930 3105 ft 138 kts 41°
2026-05-04 20:08 66.39730 25.51412 2954 ft 135 kts 38°
2026-05-04 20:08 66.40496 25.52837 3009 ft 134 kts 40°
2026-05-04 20:08 66.41207 25.54412 3022 ft 137 kts 42°
2026-05-04 20:08 66.41932 25.55890 3142 ft 132 kts 41°
2026-05-04 20:09 66.42686 25.57282 3122 ft 140 kts 34°
2026-05-04 20:09 66.43487 25.58669 3107 ft 142 kts 36°
2026-05-04 20:09 66.44262 25.60109 3171 ft 137 kts 37°
2026-05-04 20:09 66.45049 25.61508 3171 ft 140 kts 36°
2026-05-04 20:10 66.45845 25.62942 3139 ft 144 kts 38°
2026-05-04 20:10 66.46646 25.64461 3090 ft 144 kts 39°
2026-05-04 20:10 66.47451 25.66028 3017 ft 146 kts 40°
2026-05-04 20:10 66.48241 25.67629 2950 ft 146 kts 41°
2026-05-04 20:11 66.49054 25.69196 2833 ft 149 kts 38°
2026-05-04 20:11 66.49921 25.70714 2613 ft 155 kts 36°
2026-05-04 20:11 66.50800 25.72313 2252 ft 161 kts 39°
2026-05-04 20:11 66.51710 25.73987 1856 ft 162 kts 38°
2026-05-04 20:12 66.52612 25.75623 1542 ft 158 kts 39°
2026-05-04 20:12 66.53435 25.77209 1257 ft 136 kts 40°
2026-05-04 20:12 66.54043 25.78437 1078 ft 87 kts 39°
2026-05-04 20:12 66.54464 25.79245 968 ft 72 kts 35°
2026-05-04 20:13 66.54869 25.79961 877 ft 70 kts 33°
2026-05-04 20:13 66.55261 25.80694 786 ft 69 kts 34°
2026-05-04 20:13 66.55623 25.81384 712 ft 60 kts 36°
2026-05-04 20:13 66.55938 25.81992 666 ft 56 kts 33°
2026-05-04 20:14 66.56254 25.82589 659 ft 57 kts 33°
2026-05-04 20:14 66.56565 25.83171 636 ft 52 kts 33°
2026-05-04 20:14 66.56780 25.83345 636 ft 28 kts 353°
2026-05-04 20:14 66.56944 25.83290 644 ft 20 kts 352°
2026-05-04 20:15 66.56968 25.83226 647 ft 6 kts 266°
2026-05-04 20:15 66.56967 25.83194 648 ft 0 kts 260°